Radiation Dose at Monitoring Post of Fukushima Daini Nuclear Power Station
Date,Time,MP-1(microSv/h),MP-2(microSv/h),MP-3(microSv/h),MP-4(microSv/h),MP-5(microSv/h),MP-6(microSv/h),MP-7(microSv/h),Wind Direction,Wind Velocity(m/s),Rain
2016/05/07,00:00,0.449,0.259,0.469,0.413,0.391,0.210,0.183,south,7.5,No
2016/05/07,00:10,0.449,0.259,0.467,0.415,0.389,0.210,0.182,south,9.0,No
2016/05/07,00:20,0.449,0.259,0.468,0.413,0.392,0.210,0.183,south-southwest,9.5,No
2016/05/07,00:30,0.445,0.259,0.469,0.415,0.389,0.211,0.183,south,11.9,No
2016/05/07,00:40,0.449,0.259,0.466,0.413,0.392,0.210,0.182,south,12.4,No
2016/05/07,00:50,0.445,0.258,0.471,0.415,0.389,0.210,0.183,south,11.9,No
2016/05/07,01:00,0.450,0.259,0.468,0.414,0.391,0.211,0.182,south,11.5,No
2016/05/07,01:10,0.445,0.259,0.470,0.415,0.390,0.210,0.182,south,11.3,No
2016/05/07,01:20,0.449,0.258,0.467,0.412,0.390,0.210,0.182,south,11.4,No
2016/05/07,01:30,0.446,0.259,0.468,0.416,0.392,0.211,0.182,south,11.6,No
2016/05/07,01:40,0.451,0.258,0.465,0.414,0.391,0.210,0.182,south,11.4,No
2016/05/07,01:50,0.447,0.261,0.469,0.415,0.393,0.210,0.183,south,12.1,No
2016/05/07,02:00,0.449,0.258,0.466,0.417,0.389,0.210,0.183,south,13.4,No
2016/05/07,02:10,0.445,0.259,0.470,0.415,0.393,0.211,0.182,south,12.7,No
2016/05/07,02:20,0.450,0.258,0.466,0.414,0.389,0.211,0.182,south,12.9,No
2016/05/07,02:30,0.447,0.259,0.469,0.416,0.392,0.210,0.182,south,12.6,No
2016/05/07,02:40,0.449,0.257,0.467,0.414,0.390,0.210,0.183,south,14.1,No
2016/05/07,02:50,0.446,0.260,0.471,0.414,0.393,0.211,0.183,south,14.3,Yes
2016/05/07,03:00,0.448,0.260,0.467,0.413,0.390,0.210,0.183,south,15.4,No
2016/05/07,03:10,0.445,0.259,0.471,0.415,0.393,0.210,0.183,south,14.7,No
2016/05/07,03:20,0.449,0.258,0.467,0.414,0.388,0.210,0.182,south,12.7,No
2016/05/07,03:30,0.446,0.260,0.472,0.415,0.393,0.210,0.182,south,8.3,No
2016/05/07,03:40,0.448,0.259,0.467,0.413,0.389,0.211,0.183,south,9.0,No
2016/05/07,03:50,0.444,0.260,0.471,0.415,0.393,0.210,0.182,south,9.4,No
2016/05/07,04:00,0.449,0.258,0.465,0.413,0.388,0.210,0.183,south-southwest,7.9,No
2016/05/07,04:10,0.446,0.260,0.470,0.416,0.394,0.211,0.183,south,7.7,No
2016/05/07,04:20,0.449,0.258,0.466,0.414,0.390,0.211,0.182,south-southwest,10.2,No
2016/05/07,04:30,0.447,0.262,0.472,0.415,0.394,0.212,0.183,south-southwest,9.5,Yes
2016/05/07,04:40,0.448,0.259,0.467,0.413,0.389,0.212,0.183,south-southwest,8.8,Yes
2016/05/07,04:50,0.447,0.260,0.471,0.415,0.393,0.212,0.183,south-southwest,9.5,Yes
2016/05/07,05:00,0.452,0.263,0.469,0.417,0.391,0.212,0.184,south-southwest,9.0,Yes
2016/05/07,05:10,0.450,0.262,0.472,0.415,0.394,0.213,0.185,south-southwest,8.5,Yes
2016/05/07,05:20,0.454,0.262,0.468,0.416,0.392,0.211,0.185,south-southwest,9.9,No
2016/05/07,05:30,0.450,0.261,0.473,0.417,0.392,0.213,0.185,south,10.3,Yes
2016/05/07,05:40,0.452,0.261,0.466,0.415,0.391,0.211,0.184,south-southwest,12.4,Yes
2016/05/07,05:50,0.448,0.259,0.471,0.413,0.392,0.212,0.184,south-southwest,12.9,Yes
2016/05/07,06:00,0.449,0.261,0.465,0.417,0.391,0.211,0.183,south-southwest,12.4,No
2016/05/07,06:10,0.447,0.258,0.471,0.414,0.392,0.211,0.183,south-southwest,11.9,No
2016/05/07,06:20,0.449,0.260,0.466,0.416,0.392,0.210,0.183,south-southwest,11.5,No
2016/05/07,06:30,0.446,0.258,0.471,0.411,0.388,0.211,0.182,south-southwest,9.8,No
2016/05/07,06:40,0.449,0.260,0.464,0.415,0.391,0.209,0.183,south-southwest,9.2,No
2016/05/07,06:50,0.445,0.257,0.471,0.411,0.389,0.211,0.181,south,8.2,No
2016/05/07,07:00,0.449,0.259,0.466,0.414,0.389,0.210,0.182,south,7.3,No
2016/05/07,07:10,0.444,0.259,0.465,0.412,0.390,0.212,0.183,south,8.1,No
2016/05/07,07:20,0.449,0.256,0.465,0.412,0.388,0.209,0.179,south,11.3,No
2016/05/07,07:30,0.447,0.258,0.463,0.414,0.390,0.210,0.182,south,10.4,No
2016/05/07,07:40,0.445,0.258,0.466,0.410,0.386,0.212,0.181,south,10.0,No
2016/05/07,07:50,0.449,0.257,0.467,0.410,0.389,0.209,0.180,south,9.2,No
2016/05/07,08:00,0.443,0.256,0.464,0.414,0.388,0.210,0.182,south,8.6,No
2016/05/07,08:10,0.448,0.260,0.472,0.410,0.387,0.210,0.183,south,10.7,No
2016/05/07,08:20,0.447,0.256,0.467,0.411,0.392,0.210,0.181,south,9.8,No
2016/05/07,08:30,0.443,0.257,0.465,0.415,0.387,0.210,0.183,south,7.6,No
2016/05/07,08:40,0.443,0.257,0.470,0.412,0.385,0.210,0.182,south,10.4,No
2016/05/07,08:50,0.447,0.259,0.464,0.409,0.391,0.210,0.182,south,11.2,No
2016/05/07,09:00,0.446,0.258,0.468,0.410,0.389,0.210,0.183,south-southwest,10.9,No
2016/05/07,09:10,0.444,0.256,0.471,0.416,0.386,0.211,0.182,south-southwest,9.5,No
2016/05/07,09:20,0.449,0.258,0.464,0.414,0.388,0.210,0.182,south-southwest,7.8,No
2016/05/07,09:30,0.447,0.260,0.468,0.412,0.391,0.211,0.181,south-southwest,8.0,No
2016/05/07,09:40,0.446,0.258,0.469,0.408,0.390,0.211,0.181,south-southwest,11.0,No
2016/05/07,09:50,0.441,0.256,0.466,0.408,0.389,0.210,0.183,south,12.3,No
2016/05/07,10:00,0.443,0.256,0.463,0.409,0.386,0.210,0.182,south,15.4,No
2016/05/07,10:10,0.449,0.256,0.473,0.416,0.388,0.211,0.181,south,14.0,No
2016/05/07,10:20,0.446,0.259,0.467,0.416,0.394,0.212,0.182,south,16.0,No
2016/05/07,10:30,0.445,0.260,0.465,0.412,0.391,0.209,0.183,south,16.0,No
2016/05/07,10:40,0.442,0.258,0.462,0.413,0.388,0.210,0.182,south,15.2,No
2016/05/07,10:50,0.445,0.258,0.463,0.411,0.386,0.212,0.183,south,15.7,No
2016/05/07,11:00,0.450,0.258,0.468,0.417,0.392,0.211,0.185,south,15.4,No
2016/05/07,11:10,0.448,0.261,0.468,0.415,0.391,0.211,0.182,south,16.6,No
2016/05/07,11:20,0.445,0.259,0.465,0.413,0.389,0.211,0.183,south,16.0,No
2016/05/07,11:30,0.442,0.257,0.463,0.410,0.386,0.212,0.184,south,15.6,No
2016/05/07,11:40,0.446,0.258,0.464,0.411,0.392,0.210,0.183,south,13.7,No
2016/05/07,11:50,0.450,0.261,0.471,0.417,0.391,0.212,0.182,south,15.1,No
2016/05/07,12:00,0.447,0.260,0.470,0.417,0.388,0.211,0.184,south,14.0,No
2016/05/07,12:10,0.445,0.259,0.467,0.414,0.387,0.211,0.182,south,11.8,No
2016/05/07,12:20,0.447,0.258,0.466,0.411,0.386,0.211,0.182,south,14.4,No
2016/05/07,12:30,0.450,0.258,0.465,0.412,0.386,0.211,0.183,south-southwest,13.2,No
2016/05/07,12:40,0.449,0.261,0.467,0.410,0.387,0.211,0.184,south-southwest,10.9,No
2016/05/07,12:50,0.446,0.261,0.464,0.412,0.387,0.211,0.183,south-southwest,8.6,No
2016/05/07,13:00,0.444,0.259,0.465,0.409,0.388,0.212,0.182,south-southwest,9.7,No
2016/05/07,13:10,0.449,0.260,0.466,0.411,0.389,0.211,0.182,south-southwest,7.1,No
2016/05/07,13:20,0.448,0.258,0.465,0.409,0.389,0.211,0.183,south,7.1,No
2016/05/07,13:30,0.448,0.257,0.465,0.412,0.388,0.210,0.184,south,7.9,No
2016/05/07,13:40,0.446,0.259,0.466,0.418,0.389,0.210,0.184,south-southwest,7.7,No
2016/05/07,13:50,0.450,0.260,0.471,0.417,0.395,0.211,0.183,south,6.1,No
2016/05/07,14:00,0.450,0.260,0.473,0.413,0.395,0.210,0.184,south-southwest,5.1,No
2016/05/07,14:10,0.446,0.259,0.469,0.415,0.392,0.211,0.183,south-southwest,5.0,No
2016/05/07,14:20,0.447,0.262,0.468,0.421,0.387,0.211,0.183,west-southwest,3.6,No
2016/05/07,14:30,0.451,0.262,0.465,0.419,0.390,0.211,0.183,west,5.8,No
2016/05/07,14:40,0.447,0.259,0.464,0.414,0.394,0.212,0.182,west,5.7,No
2016/05/07,14:50,0.445,0.257,0.467,0.414,0.392,0.210,0.184,west,3.8,No
2016/05/07,15:00,0.452,0.260,0.472,0.411,0.392,0.211,0.184,northwest,2.2,No
2016/05/07,15:10,0.451,0.261,0.473,0.416,0.391,0.212,0.183,west-northwest,6.3,No
2016/05/07,15:20,0.447,0.261,0.470,0.419,0.390,0.210,0.184,west-northwest,6.5,No
2016/05/07,15:30,0.447,0.261,0.467,0.415,0.391,0.212,0.184,west-northwest,10.6,No
2016/05/07,15:40,0.444,0.260,0.467,0.413,0.387,0.211,0.182,west-northwest,6.6,No
2016/05/07,15:50,0.450,0.257,0.465,0.410,0.388,0.212,0.185,west-northwest,6.3,No
2016/05/07,16:00,0.451,0.260,0.465,0.415,0.388,0.212,0.184,west-northwest,6.7,No
2016/05/07,16:10,0.446,0.262,0.473,0.420,0.389,0.212,0.183,west-northwest,7.1,No
2016/05/07,16:20,0.447,0.262,0.471,0.416,0.396,0.212,0.183,northwest,7.5,No
2016/05/07,16:30,0.453,0.260,0.468,0.413,0.394,0.212,0.185,north-northwest,6.1,No
2016/05/07,16:40,0.450,0.261,0.469,0.419,0.392,0.210,0.183,north-northwest,7.5,No
2016/05/07,16:50,0.447,0.261,0.472,0.418,0.387,0.212,0.183,north-northwest,6.0,No
2016/05/07,17:00,0.449,0.261,0.470,0.412,0.396,0.211,0.184,north-northwest,7.8,No
2016/05/07,17:10,0.452,0.260,0.464,0.415,0.394,0.212,0.184,north-northwest,6.2,No
2016/05/07,17:20,0.450,0.262,0.474,0.420,0.389,0.211,0.183,northwest,5.3,No
2016/05/07,17:30,0.447,0.261,0.471,0.415,0.391,0.212,0.184,northwest,6.6,No
2016/05/07,17:40,0.452,0.260,0.467,0.414,0.395,0.211,0.184,north-northwest,6.3,No
2016/05/07,17:50,0.450,0.262,0.475,0.419,0.391,0.211,0.182,north-northwest,8.4,No
2016/05/07,18:00,0.449,0.261,0.472,0.415,0.392,0.211,0.185,north-northwest,8.7,No
2016/05/07,18:10,0.454,0.261,0.469,0.415,0.396,0.211,0.183,northwest,6.4,No
2016/05/07,18:20,0.448,0.263,0.476,0.419,0.390,0.211,0.185,north-northwest,8.4,No
2016/05/07,18:30,0.453,0.259,0.472,0.415,0.396,0.212,0.184,north-northwest,6.8,No
2016/05/07,18:40,0.452,0.262,0.470,0.416,0.392,0.211,0.183,north,6.1,No
2016/05/07,18:50,0.446,0.261,0.474,0.418,0.391,0.211,0.185,west-northwest,6.3,No
2016/05/07,19:00,0.454,0.261,0.470,0.415,0.395,0.211,0.183,northwest,5.3,No
2016/05/07,19:10,0.449,0.261,0.473,0.419,0.391,0.213,0.185,northwest,5.6,No
2016/05/07,19:20,0.449,0.260,0.471,0.417,0.397,0.211,0.184,west-northwest,7.4,No
2016/05/07,19:30,0.452,0.263,0.470,0.418,0.392,0.212,0.184,west-northwest,8.2,No
2016/05/07,19:40,0.447,0.260,0.475,0.418,0.391,0.211,0.184,northwest,7.9,No
2016/05/07,19:50,0.454,0.262,0.471,0.416,0.395,0.212,0.184,north-northwest,9.2,No
2016/05/07,20:00,0.450,0.263,0.474,0.420,0.389,0.213,0.184,north-northwest,7.2,No
2016/05/07,20:10,0.451,0.261,0.471,0.416,0.395,0.211,0.183,north-northwest,9.1,No
2016/05/07,20:20,0.452,0.263,0.470,0.418,0.390,0.213,0.184,north-northwest,5.3,No
2016/05/07,20:30,0.449,0.260,0.473,0.419,0.395,0.212,0.184,north-northwest,7.8,No
2016/05/07,20:40,0.454,0.263,0.470,0.416,0.393,0.213,0.184,northwest,7.2,No
2016/05/07,20:50,0.449,0.261,0.476,0.420,0.393,0.212,0.184,northwest,8.9,No
2016/05/07,21:00,0.453,0.262,0.471,0.415,0.393,0.212,0.184,northwest,8.2,No
2016/05/07,21:10,0.451,0.262,0.474,0.419,0.391,0.211,0.184,west-northwest,11.0,No
2016/05/07,21:20,0.449,0.261,0.474,0.416,0.396,0.211,0.183,west-northwest,12.3,No
2016/05/07,21:30,0.453,0.262,0.472,0.418,0.390,0.213,0.185,west-northwest,12.3,No
2016/05/07,21:40,0.449,0.261,0.475,0.418,0.395,0.212,0.184,northwest,10.4,No
2016/05/07,21:50,0.454,0.263,0.472,0.418,0.391,0.212,0.184,west-northwest,11.5,No
2016/05/07,22:00,0.449,0.261,0.475,0.420,0.394,0.212,0.185,west-northwest,13.3,No
2016/05/07,22:10,0.453,0.260,0.471,0.417,0.389,0.212,0.184,west-northwest,13.6,No
2016/05/07,22:20,0.452,0.260,0.475,0.420,0.394,0.212,0.185,west-northwest,15.8,No
2016/05/07,22:30,0.451,0.263,0.470,0.416,0.392,0.212,0.184,west-northwest,15.0,No
2016/05/07,22:40,0.452,0.261,0.476,0.420,0.396,0.213,0.185,west,15.1,No
2016/05/07,22:50,0.451,0.264,0.472,0.417,0.391,0.212,0.185,west-northwest,14.6,No
2016/05/07,23:00,0.452,0.261,0.474,0.420,0.395,0.213,0.185,west,14.3,No
2016/05/07,23:10,0.451,0.263,0.473,0.416,0.391,0.212,0.184,west-northwest,14.2,No
2016/05/07,23:20,0.453,0.261,0.475,0.421,0.395,0.213,0.185,west-northwest,13.0,No
2016/05/07,23:30,0.449,0.264,0.474,0.416,0.391,0.212,0.185,west-northwest,10.4,No
2016/05/07,23:40,0.453,0.262,0.474,0.419,0.396,0.213,0.185,west,8.1,No
2016/05/07,23:50,0.450,0.262,0.475,0.417,0.390,0.211,0.185,northwest,7.2,No
